Location: Peebles
(55.6412°N, 3.1714°W)
Time: 15:27:30
(UTC+01:00)

Cosmos 1339 Rocket - Pass Details

Date: 26 September 2021
Orbit: 941 x 1006 km, 82.9° (Epoch: 17 October)

Event Time Altitude Azimuth Distance (km) Brightness Sun altitude
Rises 20:42:01 0° 348° (NNW) 3,686 8.0 -14.9°
Reaches altitude 10° 20:44:33 10° 348° (NNW) 2,725 7.3 -15.2°
Maximum altitude 20:50:48 89° 72° (ENE) 966 4.4 -16.0°
Drops below altitude 10° 20:56:55 10° 170° (S) 2,667 6.5 -16.8°
Enters shadow 20:58:25 - 171° (S) 3,236 6.9 -17.0°
